TECHSAT 1B (GO-32)

Last updated on Sat Apr 13 2024 01:02:24 GMT+0100 (British Summer Time)

1 25397U 98043D 24103.47178875 .00000151 00000+0 85954-4 0 9998 2 25397 98.9160 69.2370 0001585 33.2935 326.8342 14.24013921338067
UTC large
Height (km)
Speed (km/s)
/
Latitude / Longitude
Inclination (degrees)
Orbital Period (minutes)
Azimuth
Elevation
Range (km)
Doppler Factor

Next 0 passes for location: London (51.5072 / 0.1276)

Sorry there are no passes over London.